| time (UTC) | temp F | wind direction | speed MPH | gust MPH | rain 1hr in | rain 24hr in | rain mn in | humidity % | barometer mb |
| 20260503203054 | 59 | 110 | 1.0 | 7.0 | 0.00 | 0.00 | 0.00 | 33 | 1010.6 |
| 20260503201553 | 59 | 287 | 2.0 | 7.0 | 0.00 | 0.00 | 0.00 | 31 | 1010.6 |
| 20260503200056 | 59 | 231 | 1.0 | 16.0 | 0.00 | 0.00 | 0.00 | 34 | 1010.7 |
| 20260503194558 | 59 | 41 | 2.0 | 6.0 | 0.00 | 0.00 | 0.00 | 32 | 1010.8 |
| 20260503193053 | 59 | 34 | 1.0 | 7.0 | 0.00 | 0.00 | 0.00 | 33 | 1011.0 |
| 20260503191553 | 59 | 346 | 2.0 | 8.0 | 0.00 | 0.00 | 0.00 | 33 | 1011.1 |
| 20260503190047 | 59 | 340 | 3.0 | 7.0 | 0.00 | 0.00 | 0.00 | 33 | 1011.3 |
| 20260503184547 | 58 | 347 | 1.0 | 7.0 | 0.00 | 0.00 | 0.00 | 37 | 1011.3 |
| 20260503183049 | 57 | 347 | 1.0 | 10.0 | 0.00 | 0.00 | 0.00 | 38 | 1011.6 |
| 20260503181545 | 55 | 289 | 3.0 | 9.0 | 0.00 | 0.00 | 0.00 | 39 | 1011.7 |
| 20260503180100 | 55 | 324 | 2.0 | 14.0 | 0.00 | 0.00 | 0.00 | 39 | 1011.7 |
| 20260503174547 | 55 | 297 | 3.0 | 7.0 | 0.00 | 0.00 | 0.00 | 39 | 1011.7 |
| 20260503173050 | 55 | 284 | 2.0 | 9.0 | 0.00 | 0.00 | 0.00 | 40 | 1011.8 |
| 20260503171550 | 54 | 347 | 2.0 | 8.0 | 0.00 | 0.00 | 0.00 | 40 | 1011.8 |
| 20260503110107 | 45 | 301 | 1.0 | 6.0 | 0.00 | 0.00 | 0.00 | 57 | 1011.8 |
| 20260503081550 | 47 | 329 | 0.0 | 3.0 | 0.00 | 0.00 | 0.00 | 54 | 1010.2 |
| 20260503071605 | 48 | 0 | 0.0 | 1.0 | 0.00 | 0.00 | 0.00 | 50 | 1010.1 |
| 20260503060108 | 50 | 0 | 0.0 | 1.0 | 0.00 | 0.00 | 0.00 | 50 | 1010.2 |
| 20260503054556 | 50 | 309 | 0.0 | 2.0 | 0.00 | 0.00 | 0.00 | 48 | 1010.3 |
| 20260503053048 | 51 | 295 | 0.0 | 3.0 | 0.00 | 0.00 | 0.00 | 47 | 1010.2 |
| 20260503051544 | 51 | 297 | 0.0 | 4.0 | 0.00 | 0.00 | 0.00 | 47 | 1010.3 |
| 20260503050048 | 51 | 312 | 0.0 | 3.0 | 0.00 | 0.00 | 0.00 | 46 | 1010.6 |
| 20260503044543 | 51 | 42 | 0.0 | 2.0 | 0.00 | 0.00 | 0.00 | 46 | 1010.7 |
| 20260503043049 | 51 | 311 | 0.0 | 2.0 | 0.00 | 0.00 | 0.00 | 47 | 1010.9 |
| 20260503041545 | 52 | 0 | 0.0 | 1.0 | 0.00 | 0.00 | 0.00 | 47 | 1010.8 |
| 20260503040059 | 52 | 329 | 0.0 | 2.0 | 0.00 | 0.00 | 0.00 | 45 | 1010.8 |
| 20260503034550 | 52 | 0 | 0.0 | 2.0 | 0.00 | 0.00 | 0.00 | 46 | 1010.7 |
| 20260503033042 | 52 | 0 | 0.0 | 2.0 | 0.00 | 0.00 | 0.00 | 46 | 1010.6 |
| 20260503031601 | 52 | 0 | 0.0 | 1.0 | 0.00 | 0.00 | 0.00 | 47 | 1010.8 |
| 20260503030052 | 53 | 20 | 0.0 | 3.0 | 0.00 | 0.00 | 0.00 | 47 | 1010.7 |
| 20260503024546 | 53 | 291 | 0.0 | 3.0 | 0.00 | 0.00 | 0.00 | 45 | 1010.8 |
| 20260503023050 | 54 | 0 | 0.0 | 2.0 | 0.00 | 0.00 | 0.00 | 45 | 1010.9 |
| 20260503021548 | 54 | 0 | 0.0 | 3.0 | 0.00 | 0.00 | 0.00 | 45 | 1010.6 |
| 20260503020045 | 54 | 0 | 0.0 | 2.0 | 0.00 | 0.00 | 0.00 | 43 | 1010.7 |
| 20260503014605 | 54 | 0 | 1.0 | 4.0 | 0.00 | 0.00 | 0.00 | 42 | 1010.7 |
| 20260503013044 | 54 | 32 | 0.0 | 1.0 | 0.00 | 0.00 | 0.00 | 47 | 1010.8 |
| 20260503011554 | 54 | 0 | 0.0 | 2.0 | 0.00 | 0.00 | 0.00 | 46 | 1010.7 |
| 20260503010048 | 53 | 0 | 0.0 | 2.0 | 0.00 | 0.00 | 0.00 | 50 | 1010.5 |
| 20260503004548 | 54 | 0 | 0.0 | 0.0 | 0.00 | 0.00 | 0.00 | 52 | 1010.3 |
| 20260503003048 | 55 | 0 | 0.0 | 0.0 | 0.00 | 0.00 | 0.00 | 49 | 1010.2 |
| 20260503001555 | 55 | 0 | 0.0 | 2.0 | 0.00 | 0.00 | 0.00 | 44 | 1010.1 |
| 20260503000048 | 56 | 0 | 0.0 | 0.0 | 0.00 | 0.00 | 0.00 | 45 | 1010.0 |
| 20260502234544 | 56 | 0 | 0.0 | 2.0 | 0.00 | 0.00 | 0.00 | 44 | 1010.0 |
| 20260502233052 | 57 | 0 | 0.0 | 1.0 | 0.00 | 0.00 | 0.00 | 46 | 1010.1 |
| 20260502231547 | 58 | 0 | 0.0 | 2.0 | 0.00 | 0.00 | 0.00 | 44 | 1010.1 |
| 20260502230049 | 58 | 0 | 0.0 | 2.0 | 0.00 | 0.00 | 0.00 | 41 | 1010.0 |
| 20260502224547 | 58 | 0 | 0.0 | 3.0 | 0.00 | 0.00 | 0.00 | 42 | 1009.8 |
| 20260502223053 | 59 | 0 | 0.0 | 2.0 | 0.00 | 0.00 | 0.00 | 40 | 1009.8 |
| 20260502221548 | 59 | 274 | 2.0 | 7.0 | 0.00 | 0.00 | 0.00 | 38 | 1009.7 |
| 20260502220048 | 59 | 0 | 0.0 | 2.0 | 0.00 | 0.00 | 0.00 | 41 | 1010.0 |
| 20260502214551 | 59 | 323 | 1.0 | 3.0 | 0.00 | 0.00 | 0.00 | 39 | 1010.0 |
| 20260502213054 | 60 | 265 | 1.0 | 3.0 | 0.00 | 0.00 | 0.00 | 39 | 1010.0 |
| 20260502211546 | 60 | 326 | 1.0 | 5.0 | 0.00 | 0.00 | 0.00 | 39 | 1009.7 |
| 20260502204550 | 60 | 318 | 1.0 | 5.0 | 0.00 | 0.00 | 0.00 | 38 | 1009.6 |